This demonstration page uses our WeatherBlox Daily Observations layout. Learn more.

Left ArrowRight Arrow

Hourly Observations for February 9, 2017

Temp ( °F °C ) Dew Point ( °F °C ) Humidity (%) Winds ( mph kmh ) Pressure ( in mb ) Visibility ( mi km ) Precip ( " mm )
12:51 am 00:51 Clear 47 8.3 40 4.4 77 77 N N/A 30.10 1019 10 16 N/A
1:51 am 01:51 Clear 47 8.3 40 4.4 77 77 N N/A 30.08 1019 10 16 N/A
2:51 am 02:51 Clear 47 8.3 39 3.9 74 74 S 3 6 30.07 1018 10 16 N/A
3:51 am 03:51 Clear 47 8.3 39 3.9 74 74 SSE 5 7 30.06 1018 10 16 N/A
4:51 am 04:51 Clear 43 6.1 38 3.3 82 82 NNW 6 9 30.08 1019 10 16 N/A
5:51 am 05:51 Clear 41 5 38 3.3 89 89 undefined N/A 30.10 1019 10 16 N/A
6:51 am 06:51 Clear 41 5 36 2.2 82 82 N N/A 30.13 1020 10 16 N/A
7:51 am 07:51 Sunny 47 8.3 39 3.9 74 74 E 6 9 30.14 1021 10 16 N/A
8:51 am 08:51 Sunny 56 13.3 40 4.4 55 55 SE 12 19 30.12 1020 10 16 N/A
9:51 am 09:51 Sunny 62 16.7 40 4.4 44 44 SE 12 19 30.12 1020 10 16 N/A
10:51 am 10:51 Sunny 68 20 39 3.9 35 35 ESE 9 15 30.11 1020 10 16 N/A
11:51 am 11:51 Sunny 70 21.1 41 5 35 35 ESE 9 15 30.09 1019 10 16 N/A
12:51 pm 12:51 Sunny 74 23.3 41 5 31 31 ESE 8 13 30.03 1017 10 16 N/A
1:51 pm 13:51 Sunny 76 24.4 40 4.4 27 27 SSE 8 13 29.98 1015 10 16 N/A
2:51 pm 14:51 Sunny 78 25.6 40 4.4 26 26 S 6 9 29.96 1014 10 16 N/A
3:51 pm 15:51 Sunny 79 26.1 38 3.3 23 23 S 5 7 29.94 1014 10 16 N/A
4:51 pm 16:51 Sunny 78 25.6 39 3.9 25 25 S 7 11 29.94 1014 10 16 N/A
5:51 pm 17:51 Sunny 73 22.8 39 3.9 29 29 WNW 3 6 29.96 1015 10 16 N/A
6:51 pm 18:51 Clear 65 18.3 40 4.4 40 40 N 9 15 29.99 1016 10 16 N/A
7:51 pm 19:51 Clear 63 17.2 40 4.4 43 43 NNE 7 11 30.00 1016 10 16 N/A
8:51 pm 20:51 Clear 58 14.4 39 3.9 50 50 E 5 7 30.01 1016 10 16 N/A
9:51 pm 21:51 Clear 55 12.8 39 3.9 55 55 E 5 7 30.00 1016 10 16 N/A
10:51 pm 22:51 Clear 55 12.8 38 3.3 53 53 VRB 5 7 29.99 1016 10 16 N/A
11:51 pm 23:51 Clear 51 10.6 38 3.3 61 61 WNW 7 11 30.01 1016 10 16 N/A

Powered by AerisWeather